Airfield :
LOGIN :

Register | Disclaimer

   EN    FR    IT 

 










Legend :    VFR   Marginal VFR   IFR   Intensive IFR   Very Intensive IFR
Visi :
Ceiling :
>= 8 km
>= 3000ft
5 to 8 km
1000 to 3000 ft
1500m to 5 km
500 to 1000 ft
800 to 1500m
200 to 500 ft
< 800m
< 200 ft
Symbols :   Thunderstorms  Fog  Heavy snow  Heavy precipitations  Wind > 20 kt
SIGMETs :     Misc.  Thunderstorms  Icing  Turbulence  Mountain Waves  Volcanic Ashes







- Airport Elevation : 39 ft
- IATA code : TRS


LIPQ - Friuli Venezia Giulia Apt. Trieste

CURRENT METAR :
  • 260950Z VRB03KT CAVOK 34/20 Q1022

EXPIRED METARs :
  • 260920Z 36005KT 330V050 CAVOK 32/19 Q1022
  • 260850Z 01004KT 320V060 CAVOK 32/20 Q1022
  • 260820Z 02005KT 350V060 CAVOK 31/20 Q1022
  • 260750Z 36005KT 330V040 CAVOK 30/21 Q1022
  • 260720Z 34004KT 300V010 CAVOK 29/21 Q1023

TAF TAF LIPQ
Valid from the 26 at 06:00 until the 27 at 06:00 UTC


260500Z 2606/2706 VRB06KT CAVOK
No reported NOTAMs for that airfield.



MET'MAP, your aeronautical weather chart ! - Copyright ORBIFLY December 2007 - Disclaimer

ORBIFLY MET'MAP TEAM :

Programming & Development : Alexandra Zaïnal
Concept & Development : Baudouin d'Aumeries
Co-Development & Prog : Marc-Olivier Méhu
Technical & hardware support : Manuel Goepfert

Contact : metmap@orbifly.com




SOURCES & CREDITS :

   NOAA